Weather History for Crestview, FL

Change the Weather History Date:

Friday, November 30, 2012

  Actual Average Record
Temperature  
Mean Temperature 60 °F -  
Max Temperature 73 °F 66 °F 83 °F (1982)
Min Temperature 48 °F 40 °F 23 °F (2003)
Degree Days  
Heating Degree Days 4    
Growing Degree Days 10 (Base 50)    
Moisture  
Dew Point 50 °F    
Average Humidity 82    
Maximum Humidity 96    
Minimum Humidity 48    
Precipitation  
Precipitation 0.00 in - - ()
Sea Level Pressure  
Sea Level Pressure 30.28 in    
Wind  
Wind Speed 2 mph (East)    
Max Wind Speed 7 mph    
Max Gust Speed -    
Visibility 7 miles    
Events      
Averages and records for this station are not official NWS values.
T = Trace of Precipitation, MM = Missing Value Source: NWS Daily Summary

Daily Weather History Graph

Daily Weather History Graph

Search for Another Location

Airport:

Trip Planner

Search our weather history database for the weather conditions in past years. The results will help you decide how hot, cold, wet, or windy it might be!

Date:

Astronomy

Nov. 30, 2012 Rise Set
Actual Time 6:25 AM CST 4:44 PM CST
Civil Twilight 5:59 AM CST 5:10 PM CST
Nautical Twilight 5:29 AM CST 5:40 PM CST
Astronomical Twilight 5:00 AM CST 6:09 PM CST
Moon 6:37 PM CST (11/30) 7:57 AM CST (11/30)
Length of Visible Light 11h 11m
Length of Day
10h 18m
Waning Gibbous, 96% of the Moon is Illuminated
Nov 30
Waning Gibbous
Dec 6
Last Quarter
Dec 13
New
Dec 19
First Quarter
Dec 28
Full

Hourly Weather History & Observations

Time (CST) Temp. Dew Point Humidity Pressure Visibility Wind Dir Wind Speed Gust Speed Precip Events Conditions
12:53 AM 48.9 °F 46.9 °F 93% 30.30 in 6.0 mi Calm Calm - N/A   Overcast
1:53 AM 50.0 °F 46.0 °F 86% 30.30 in 9.0 mi NE 3.5 mph - N/A   Scattered Clouds
2:53 AM 48.9 °F 46.0 °F 90% 30.30 in 7.0 mi Calm Calm - N/A   Scattered Clouds
3:53 AM 48.0 °F 45.0 °F 89% 30.29 in 6.0 mi Calm Calm - N/A   Clear
4:53 AM 48.0 °F 45.0 °F 89% 30.30 in 6.0 mi NE 3.5 mph - N/A   Clear
5:53 AM 48.9 °F 46.0 °F 90% 30.30 in 6.0 mi Calm Calm - N/A   Overcast
6:53 AM 50.0 °F 46.9 °F 89% 30.31 in 4.0 mi Calm Calm - N/A   Mostly Cloudy
7:53 AM 51.1 °F 48.9 °F 92% 30.32 in 5.0 mi Calm Calm - N/A   Scattered Clouds
8:53 AM 54.0 °F 50.0 °F 86% 30.32 in 7.0 mi ENE 4.6 mph - N/A   Mostly Cloudy
9:53 AM 64.0 °F 54.0 °F 70% 30.32 in 10.0 mi Variable 4.6 mph - N/A   Mostly Cloudy
10:53 AM 69.1 °F 54.0 °F 58% 30.30 in 10.0 mi Variable 4.6 mph - N/A   Mostly Cloudy
11:53 AM 70.0 °F 53.1 °F 55% 30.28 in 10.0 mi Variable 3.5 mph - N/A   Overcast
12:53 PM 73.0 °F 52.0 °F 48% 30.25 in 10.0 mi Variable 6.9 mph - N/A   Clear
1:53 PM 71.1 °F 53.1 °F 53% 30.23 in 10.0 mi South 4.6 mph - N/A   Mostly Cloudy
2:53 PM 73.0 °F 52.0 °F 48% 30.22 in 10.0 mi SSE 4.6 mph - N/A   Overcast
3:53 PM 69.1 °F 54.0 °F 58% 30.23 in 10.0 mi South 5.8 mph - N/A   Overcast
4:53 PM 66.0 °F 55.9 °F 70% 30.24 in 10.0 mi Calm Calm - N/A   Overcast
5:53 PM 57.9 °F 54.0 °F 87% 30.25 in 10.0 mi Calm Calm - N/A   Clear
6:53 PM 55.9 °F 53.1 °F 90% 30.26 in 9.0 mi Calm Calm - N/A   Clear
7:53 PM 55.9 °F 53.1 °F 90% 30.27 in 10.0 mi Calm Calm - N/A   Mostly Cloudy
8:48 PM 53.6 °F 51.8 °F 94% 30.27 in 1.8 mi Calm Calm - N/A   Clear
8:53 PM 52.0 °F 50.0 °F 93% 30.27 in 1.8 mi Calm Calm - N/A   Clear
8:58 PM 51.8 °F 50.0 °F 94% 30.27 in 3.0 mi Calm Calm - N/A   Clear
9:28 PM 51.8 °F 48.2 °F 88% 30.27 in 1.5 mi Calm Calm - N/A   Clear
9:38 PM 51.8 °F 48.2 °F 88% 30.27 in 8.0 mi Calm Calm - N/A   Partly Cloudy
9:53 PM 51.1 °F 50.0 °F 96% 30.27 in 7.0 mi Calm Calm - N/A   Partly Cloudy
10:29 PM 51.8 °F 48.2 °F 88% 30.27 in 2.5 mi Calm Calm - N/A   Clear
10:37 PM 50.0 °F 48.2 °F 94% 30.27 in 6.0 mi Calm Calm - N/A   Clear
10:53 PM 48.9 °F 46.9 °F 93% 30.26 in 5.0 mi NE 4.6 mph - N/A   Clear
11:53 PM 48.9 °F 46.9 °F 93% 30.25 in 5.0 mi Calm Calm - N/A   Clear